Weather History for McComb, MS

Change the Weather History Date:

Saturday, October 13, 2012

  Actual Average Record
Temperature  
Mean Temperature 71 °F -  
Max Temperature 82 °F 80 °F 92 °F (1963)
Min Temperature 60 °F 53 °F 37 °F (1977)
Cooling Degree Days 6    
Growing Degree Days 21 (Base 50)    
Moisture  
Dew Point 64 °F    
Average Humidity 86    
Maximum Humidity 100    
Minimum Humidity 54    
Precipitation  
Precipitation 0.01 in - - ()
Sea Level Pressure  
Sea Level Pressure 30.17 in    
Wind  
Wind Speed 2 mph (SSE)    
Max Wind Speed 13 mph    
Max Gust Speed 22 mph    
Visibility 6 miles    
Events Fog    
Averages and records for this station are not official NWS values.
T = Trace of Precipitation, MM = Missing Value Source: NWS Daily Summary

Daily Weather History Graph

Daily Weather History Graph

Search for Another Location

Airport:

Trip Planner

Search our weather history database for the weather conditions in past years. The results will help you decide how hot, cold, wet, or windy it might be!

Date:

Astronomy

Oct. 13, 2012 Rise Set
Actual Time 7:03 AM CDT 6:31 PM CDT
Civil Twilight 6:39 AM CDT 6:56 PM CDT
Nautical Twilight 6:11 AM CDT 7:24 PM CDT
Astronomical Twilight 5:43 AM CDT 7:52 PM CDT
Moon 4:59 AM CDT (10/13) 5:11 PM CDT (10/13)
Length of Visible Light 12h 16m
Length of Day
11h 28m
Waning Crescent, 5% of the Moon is Illuminated
Oct 13
Waning Crescent
Oct 15
New
Oct 21
First Quarter
Oct 29
Full
Nov 6
Last Quarter

Hourly Weather History & Observations

Time (CDT) Temp. Heat Index Dew Point Humidity Pressure Visibility Wind Dir Wind Speed Gust Speed Precip Events Conditions
12:53 AM 62.1 °F - 61.0 °F 96% 30.17 in 6.0 mi Calm Calm - N/A   Clear
1:53 AM 61.0 °F - 60.1 °F 97% 30.17 in 6.0 mi Calm Calm - N/A   Clear
2:53 AM 60.1 °F - 59.0 °F 96% 30.17 in 5.0 mi Calm Calm - N/A   Clear
3:53 AM 60.1 °F - 59.0 °F 96% 30.17 in 6.0 mi Calm Calm - N/A   Clear
4:22 AM 60.8 °F - 59.0 °F 94% 30.19 in 7.0 mi Calm Calm - N/A   Scattered Clouds
4:33 AM 60.8 °F - 57.2 °F 88% 30.19 in 8.0 mi Calm Calm - N/A   Mostly Cloudy
4:53 AM 61.0 °F - 59.0 °F 93% 30.18 in 6.0 mi Calm Calm - N/A   Overcast
5:11 AM 60.8 °F - 60.8 °F 100% 30.19 in 1.8 mi Calm Calm - N/A   Overcast
5:53 AM 62.1 °F - 62.1 °F 100% 30.19 in 0.2 mi Calm Calm - N/A Fog Fog
6:53 AM 62.1 °F - 62.1 °F 100% 30.21 in 0.2 mi Calm Calm - N/A Fog Fog
7:53 AM 63.0 °F - 63.0 °F 100% 30.22 in 0.2 mi Calm Calm - 0.01 in Fog Fog
8:53 AM 64.9 °F - 64.9 °F 100% 30.22 in 0.2 mi SSE 5.8 mph - N/A Fog Fog
9:30 AM 66.2 °F - 66.2 °F 100% 30.24 in 0.8 mi SSE 4.6 mph - N/A   Mist
9:48 AM 68.0 °F - 68.0 °F 100% 30.24 in 4.0 mi Calm Calm - N/A   Mostly Cloudy
9:53 AM 68.0 °F - 68.0 °F 100% 30.23 in 5.0 mi South 3.5 mph - N/A   Scattered Clouds
10:53 AM 75.9 °F - 68.0 °F 76% 30.22 in 10.0 mi SSE 5.8 mph - N/A   Clear
11:53 AM 80.1 °F 81.9 °F 64.9 °F 60% 30.20 in 10.0 mi SSE 9.2 mph 17.3 mph N/A   Clear
12:53 PM 81.0 °F 82.5 °F 64.0 °F 56% 30.17 in 10.0 mi SSW 8.1 mph - N/A   Clear
1:53 PM 82.0 °F 83.4 °F 64.0 °F 54% 30.14 in 10.0 mi South 12.7 mph 21.9 mph N/A   Clear
3:53 PM 82.0 °F 83.4 °F 64.0 °F 54% 30.10 in 10.0 mi South 9.2 mph - N/A   Partly Cloudy
4:53 PM 80.1 °F 81.9 °F 64.9 °F 60% 30.09 in 10.0 mi South 8.1 mph - N/A   Partly Cloudy
5:53 PM 78.1 °F - 66.0 °F 66% 30.09 in 10.0 mi SSE 8.1 mph - N/A   Clear
7:53 PM 71.1 °F - 66.9 °F 87% 30.10 in 10.0 mi SSE 3.5 mph - N/A   Clear
9:53 PM 71.1 °F - 68.0 °F 90% 30.12 in 9.0 mi SSE 8.1 mph - N/A   Scattered Clouds
10:53 PM 70.0 °F - 68.0 °F 93% 30.12 in 8.0 mi SSE 6.9 mph - N/A   Clear